Weather History for Charlotte, NC

Change the Weather History Date:

Sunday, August 18, 2013

  Actual Average Record
Temperature  
Mean Temperature 74 °F 77 °F  
Max Temperature 83 °F 88 °F 101 °F (1988)
Min Temperature 65 °F 67 °F 59 °F (1976)
Degree Days  
Heating Degree Days 0 0  
Month to date heating degree days 1 0  
Since 1 June heating degree days 1 3  
Since 1 July heating degree days 1 0  
Cooling Degree Days 9 12  
Month to date cooling degree days 210 233  
Year to date cooling degree days 1142 1127  
Since 1 June cooling degree days 973 964  
Growing Degree Days 23 (Base 50)    
Moisture  
Dew Point 67 °F    
Average Humidity 83    
Maximum Humidity 100    
Minimum Humidity 65    
Precipitation  
Precipitation 0.02 in 0.13 in 1.76 in (1939)
Month to date precipitation 1.23 2.48  
Year to date precipitation 34.75 26.86  
Snow  
Snow 0.00 in 0.00 in 0.00 in ()
Month to date snowfall 0.0 0.0  
Since 1 June snowfall 0.0 0.0  
Since 1 July snowfall 0.0 0.0  
Snow Depth 0.00 in    
Sea Level Pressure  
Sea Level Pressure 30.18 in    
Wind  
Wind Speed 3 mph (NNW)    
Max Wind Speed 7 mph    
Max Gust Speed 9 mph    
Visibility 6 miles    
Events Rain    
T = Trace of Precipitation, MM = Missing Value Source: NWS Daily Summary

Daily Weather History Graph

Daily Weather History Graph

Search for Another Location

Airport:

Trip Planner

Search our weather history database for the weather conditions in past years. The results will help you decide how hot, cold, wet, or windy it might be!

Date:

Astronomy

Aug. 18, 2013 Rise Set
Actual Time 6:45 AM EDT 8:08 PM EDT
Civil Twilight 6:19 AM EDT 8:35 PM EDT
Nautical Twilight 5:47 AM EDT 9:07 PM EDT
Astronomical Twilight 5:13 AM EDT 9:40 PM EDT
Moon 6:11 PM EDT (8/18) 3:56 AM EDT (8/18)
Length of Visible Light 14h 15m
Length of Day
13h 22m
Waxing Gibbous, 92% of the Moon is Illuminated
Aug 18
Waxing Gibbous
Aug 20
Full
Aug 28
Last Quarter
Sep 5
New
Sep 12
First Quarter

Hourly Weather History & Observations

Time (EDT) Temp. Heat Index Dew Point Humidity Pressure Visibility Wind Dir Wind Speed Gust Speed Precip Events Conditions
12:52 AM 66.0 °F - 64.9 °F 96% 30.16 in 2.0 mi Calm Calm - 0.02 in Rain Light Rain
1:52 AM 64.9 °F - 64.9 °F 100% 30.16 in 2.0 mi NNW 3.5 mph - 0.01 in   Overcast
2:52 AM 64.9 °F - 64.9 °F 100% 30.16 in 2.0 mi Calm Calm - N/A   Overcast
3:27 AM 64.4 °F - 64.4 °F 100% 30.17 in 2.0 mi Calm Calm - 0.01 in Rain Light Rain
3:44 AM 64.4 °F - 64.4 °F 100% 30.17 in 2.0 mi NNW 3.5 mph - 0.01 in   Overcast
3:52 AM 64.9 °F - 64.9 °F 100% 30.16 in 2.0 mi NW 3.5 mph - 0.01 in   Overcast
4:52 AM 64.9 °F - 64.9 °F 100% 30.16 in 2.0 mi Calm Calm - N/A   Overcast
5:20 AM 64.4 °F - 64.4 °F 100% 30.17 in 2.0 mi Calm Calm - N/A   Overcast
5:52 AM 64.9 °F - 64.9 °F 100% 30.17 in 2.0 mi Calm Calm - 0.00 in   Overcast
6:52 AM 64.9 °F - 64.9 °F 100% 30.18 in 2.0 mi NNW 5.8 mph - N/A   Overcast
7:10 AM 64.4 °F - 64.4 °F 100% 30.20 in 2.0 mi NNW 3.5 mph - N/A   Overcast
7:31 AM 64.4 °F - 64.4 °F 100% 30.20 in 2.0 mi NW 3.5 mph - 0.00 in   Light Drizzle
7:52 AM 66.0 °F - 64.9 °F 96% 30.19 in 2.0 mi Calm Calm - 0.00 in   Overcast
8:06 AM 66.2 °F - 64.4 °F 94% 30.21 in 2.0 mi Calm Calm - N/A   Overcast
8:52 AM 66.9 °F - 66.0 °F 97% 30.20 in 2.0 mi NNW 3.5 mph - N/A   Overcast
9:52 AM 70.0 °F - 66.9 °F 90% 30.21 in 10.0 mi Calm Calm - N/A   Mostly Cloudy
10:13 AM 71.6 °F - 66.2 °F 83% 30.23 in 10.0 mi Calm Calm - N/A   Mostly Cloudy
10:52 AM 73.0 °F - 66.9 °F 81% 30.23 in 10.0 mi Calm Calm - N/A   Mostly Cloudy
11:52 AM 75.9 °F - 68.0 °F 76% 30.22 in 10.0 mi West 4.6 mph - N/A   Mostly Cloudy
12:14 PM 75.2 °F - 68.0 °F 78% 30.23 in 10.0 mi Calm Calm - N/A   Mostly Cloudy
12:52 PM 77.0 °F - 68.0 °F 74% 30.21 in 10.0 mi Calm Calm - N/A   Mostly Cloudy
1:52 PM 80.1 °F 82.9 °F 69.1 °F 69% 30.19 in 10.0 mi Variable 4.6 mph - N/A   Mostly Cloudy
2:52 PM 81.0 °F 84.1 °F 69.1 °F 67% 30.17 in 10.0 mi Variable 3.5 mph - N/A   Mostly Cloudy
3:52 PM 82.9 °F 87.0 °F 70.0 °F 65% 30.14 in 10.0 mi Variable 3.5 mph - N/A   Mostly Cloudy
4:52 PM 81.0 °F 84.1 °F 69.1 °F 67% 30.14 in 10.0 mi Variable 3.5 mph - N/A   Overcast
5:52 PM 80.1 °F 83.6 °F 71.1 °F 74% 30.15 in 10.0 mi North 6.9 mph - N/A   Overcast
6:52 PM 79.0 °F - 71.1 °F 77% 30.14 in 10.0 mi North 3.5 mph - N/A   Overcast
7:52 PM 75.9 °F - 71.1 °F 85% 30.16 in 10.0 mi North 4.6 mph - N/A   Overcast
8:52 PM 77.0 °F - 70.0 °F 79% 30.16 in 10.0 mi NNE 3.5 mph - N/A   Overcast
9:52 PM 75.9 °F - 69.1 °F 79% 30.18 in 10.0 mi Calm Calm - N/A   Overcast
10:52 PM 75.9 °F - 70.0 °F 82% 30.18 in 10.0 mi East 4.6 mph - 0.00 in   Overcast
11:52 PM 75.0 °F - 71.1 °F 87% 30.17 in 10.0 mi ENE 3.5 mph - 0.00 in   Overcast